GFSSE_sfc_rhum_057.txt.gz
RH
90 80 75 76 76 76 76 79 81 80 79 78 76 78 77 75 76 78 78 73 72 74 72 71 73 74 74 74 74 77 78 80 80 77 75 73 73 77 76 75 73 67 76
73 76 78 77 77 77 78 80 80 82 78 77 77 78 75 76 76 75 76 73 72 74 69 70 72 70 71 73 74 75 77 80 79 74 73 71 71 74 78 73 75 73 75
71 72 74 81 79 79 80 80 79 77 76 77 78 78 75 75 75 75 73 72 71 73 73 68 71 74 72 73 75 75 75 75 75 73 74 80 75 73 74 74 75 75 76
64 76 76 84 81 78 79 79 79 76 77 78 77 77 75 75 74 74 72 74 74 73 72 71 69 71 73 74 75 74 72 72 69 68 74 68 63 73 74 75 73 72 75
66 68 76 82 82 77 76 76 79 78 77 77 76 74 75 74 72 73 72 71 71 71 70 69 69 70 72 72 72 72 71 72 71 69 74 82 76 69 74 73 72 72 72
64 78 81 80 78 79 78 79 78 77 77 76 76 74 74 74 74 72 70 70 70 70 70 70 69 69 68 69 71 72 70 72 70 77 76 80 81 75 71 71 73 71 74
76 81 80 83 81 78 78 78 77 76 76 77 76 74 74 72 73 73 69 70 70 69 69 69 68 69 69 67 68 68 73 70 74 76 78 85 79 77 72 73 73 74 76
74 78 77 81 80 80 77 77 77 76 76 77 74 75 75 74 74 70 70 70 68 67 68 70 70 70 70 69 65 66 72 69 70 76 81 82 82 77 71 73 74 76 70
68 75 80 81 77 77 78 77 76 76 76 75 75 75 77 73 71 70 70 68 67 67 68 69 71 71 68 66 64 68 68 68 75 75 71 83 82 74 73 73 70 70 73
66 72 78 81 85 86 83 76 74 75 75 75 74 73 73 71 69 70 77 73 67 67 68 69 70 72 72 70 69 68 68 70 70 77 81 83 81 72 73 74 76 76 75
61 66 71 72 82 88 86 76 75 75 74 74 75 73 80 81 74 71 72 70 66 66 68 70 71 75 76 74 73 73 77 73 70 79 83 84 80 70 70 70 74 76 76
60 62 62 66 78 78 66 85 87 78 87 90 89 87 91 81 86 73 72 71 66 68 68 73 65 63 74 90 89 85 86 68 73 82 84 84 79 72 73 72 72 73 74
49 51 56 62 71 69 76 88 93 90 86 90 87 88 89 79 76 79 84 75 85 77 79 88 78 78 76 90 92 85 73 61 72 78 84 85 79 72 74 74 74 76 74
43 45 57 65 70 76 77 79 93 82 90 82 74 86 94 79 71 90 92 91 92 93 88 95 87 84 88 87 85 83 62 82 77 87 88 83 79 73 73 75 73 74 73
54 56 72 71 71 82 85 93 87 91 92 75 81 87 91 88 79 77 90 84 83 92 96 94 88 86 88 78 71 62 53 69 71 85 95 82 83 78 73 71 72 71 72
51 59 68 63 62 85 85 84 83 77 66 69 84 78 79 90 82 95 94 83 88 83 76 74 86 88 80 79 61 56 66 64 66 77 83 90 84 82 78 74 70 71 74
57 63 68 73 70 78 83 85 80 71 64 71 75 84 83 88 87 85 90 88 81 83 82 79 71 78 77 67 54 58 65 69 67 68 72 84 84 82 80 73 74 74 70
58 63 65 55 67 80 75 81 85 73 69 73 70 85 82 75 88 93 92 88 85 79 75 58 68 63 66 67 67 58 64 66 68 66 72 78 83 71 78 78 77 77 70
49 60 59 61 66 72 81 74 74 69 72 75 76 86 77 79 82 93 93 92 87 88 84 74 75 67 67 65 65 68 67 59 62 63 70 74 80 83 84 82 82 81 73
49 50 62 59 70 72 81 81 80 82 73 76 82 80 78 88 79 85 91 90 90 83 84 83 80 63 67 59 41 47 61 64 64 68 68 66 76 75 79 86 93 89 84
50 52 66 64 70 79 86 85 86 80 81 79 80 71 78 85 82 91 92 89 82 83 75 75 72 67 69 63 63 65 62 59 57 67 61 64 72 71 75 82 89 86 84
53 54 73 71 70 76 79 82 79 79 74 75 86 85 76 77 83 85 91 93 87 85 86 82 83 82 69 71 72 75 64 60 56 54 64 54 57 68 69 75 81 84 81
57 61 71 74 71 73 72 81 85 78 83 79 85 88 84 78 80 82 86 86 87 88 82 81 78 78 79 73 64 75 67 65 76 70 58 61 54 67 65 66 73 77 82
54 58 70 74 73 76 69 76 82 76 76 75 75 79 83 75 76 78 79 82 87 83 88 86 80 82 78 80 69 63 70 64 66 72 72 66 60 60 65 69 66 66 66
51 54 67 75 72 65 77 68 79 79 72 75 69 72 82 87 79 75 81 86 86 90 87 84 83 82 88 84 77 77 71 71 70 74 77 68 69 66 62 64 66 68 63
50 53 63 79 73 70 74 86 77 77 78 67 82 76 71 84 84 86 78 85 88 90 90 86 83 81 84 87 86 84 71 67 69 73 76 80 70 64 68 64 62 66 68

GFSSE_sfc_rhum_060.txt.gz
RH
93 84 78 76 77 77 79 79 78 77 76 78 79 76 77 77 77 76 73 73 74 72 72 74 74 74 74 77 78 78 77 78 78 74 72 71 74 77 76 73 74 70 74
83 81 80 79 77 78 80 81 79 77 75 80 77 76 77 77 77 77 72 74 71 70 71 71 71 72 74 75 77 77 77 80 79 73 72 72 73 75 74 74 75 73 74
78 80 79 82 79 78 80 80 78 76 78 78 76 76 77 76 76 74 73 72 75 69 71 74 72 72 73 75 76 74 75 77 76 73 76 84 76 73 73 73 74 74 74
76 84 80 85 82 80 79 79 77 76 79 78 76 76 76 75 74 73 74 74 74 73 70 69 72 71 72 74 73 72 72 74 74 72 79 77 66 73 74 72 72 74 75
81 83 79 82 82 79 79 78 77 77 77 77 76 76 75 74 74 72 72 71 71 71 70 69 71 71 72 71 72 70 72 74 72 75 81 84 82 72 71 73 73 74 75
78 81 80 79 76 75 76 77 78 77 77 76 75 77 74 73 73 70 71 70 70 70 70 70 69 70 71 72 71 69 72 75 78 84 84 84 84 72 71 72 69 73 74
84 83 79 83 81 79 80 78 77 77 77 77 75 74 75 73 72 70 70 70 70 70 70 70 69 69 70 73 73 70 73 76 83 84 86 88 83 77 71 73 73 74 72
86 85 81 81 80 80 78 77 77 77 77 76 75 75 74 74 70 71 70 69 69 69 70 69 68 70 75 69 70 74 74 73 77 84 87 87 81 75 72 73 75 71 70
82 87 86 81 78 77 78 77 77 77 76 76 75 75 75 72 72 71 70 68 68 68 69 70 70 70 68 69 69 74 74 76 86 84 76 88 82 76 74 71 68 76 74
85 85 94 93 90 90 86 76 76 76 76 75 74 73 72 70 69 69 75 72 67 67 68 70 73 78 71 72 74 73 72 73 82 86 88 88 79 70 71 74 75 72 71
81 90 90 92 96 94 89 79 77 75 75 74 73 72 80 84 79 76 73 69 67 67 69 70 76 79 78 73 76 74 75 83 85 89 91 85 78 72 75 75 75 75 75
85 87 86 91 94 92 72 89 91 82 92 93 91 89 93 88 90 77 72 69 67 68 70 71 65 71 79 87 83 79 92 79 88 90 93 85 78 72 69 74 77 74 76
78 77 80 84 88 88 87 97 98 96 94 95 90 92 92 90 87 87 87 85 89 77 88 82 76 83 84 92 93 87 76 77 90 88 88 86 79 72 74 71 72 75 74
72 71 73 80 84 87 89 94 98 90 96 91 90 90 93 88 86 92 95 90 92 92 84 95 87 82 90 89 87 81 74 87 89 93 92 85 80 74 73 74 75 74 74
65 65 69 76 84 90 95 97 97 95 96 84 85 91 94 85 86 86 92 92 86 95 93 94 85 82 85 82 76 70 68 81 89 94 98 80 82 77 74 73 74 72 72
56 62 72 74 82 90 90 94 92 91 88 84 86 87 87 93 92 94 94 90 93 93 95 90 85 86 86 77 73 71 76 76 83 91 93 91 84 82 75 71 71 72 74
60 63 71 73 80 84 89 91 81 77 73 83 82 71 83 90 90 91 94 94 92 90 87 82 88 88 86 77 70 70 74 75 74 83 89 95 92 81 78 76 72 74 75
60 68 66 55 68 84 82 86 88 79 79 80 85 86 84 87 91 95 94 93 85 88 78 78 88 88 85 68 70 73 77 77 77 79 83 87 89 85 84 79 79 79 72
63 65 63 59 76 80 80 83 81 79 78 75 85 90 89 84 86 93 94 92 88 90 89 75 79 74 78 76 69 72 72 76 78 70 81 83 88 84 89 84 83 82 72
60 63 65 65 77 79 84 79 82 82 81 86 87 88 83 87 85 91 94 89 91 85 84 83 78 69 70 70 49 60 70 72 78 83 79 74 84 84 88 90 95 91 84
61 64 67 69 78 77 89 89 92 84 86 85 94 83 86 88 84 88 93 92 86 81 75 79 69 69 70 68 66 69 60 62 69 74 79 82 82 80 84 88 96 97 92
58 64 68 68 77 76 80 86 84 82 82 80 89 91 85 84 89 88 91 93 89 87 80 85 82 78 78 78 73 81 68 58 70 64 73 72 78 80 79 78 86 90 89
55 69 68 71 74 77 79 86 90 85 85 86 93 91 88 83 84 85 88 91 88 93 88 86 85 78 71 75 75 67 71 72 82 71 69 70 68 85 83 81 81 82 88
52 65 69 70 75 74 78 84 87 86 88 81 85 84 89 84 85 82 87 90 89 90 91 85 77 85 82 74 71 68 75 75 73 70 72 72 69 73 78 79 80 80 83
50 59 72 73 75 72 69 68 78 85 81 82 80 83 88 90 84 81 81 88 91 92 90 86 87 90 90 86 76 79 74 76 82 81 77 70 71 71 72 73 73 77 72
53 56 74 75 75 77 72 81 78 82 81 87 81 84 89 94 89 87 81 90 90 92 91 89 88 82 90 91 88 90 69 68 80 73 84 82 75 65 72 71 71 73 70

GFSSE_sfc_rhum_063.txt.gz
RH
95 86 80 77 77 79 76 76 75 75 80 77 75 77 77 77 75 74 74 74 73 74 76 76 74 75 76 74 75 73 74 75 74 73 75 75 74 74 74 75 74 68 73
86 85 81 79 76 79 78 77 75 76 80 76 78 78 78 78 76 73 76 71 71 71 72 72 74 73 75 76 75 75 78 77 76 73 74 72 74 72 73 73 74 72 72
83 85 80 82 78 80 80 78 75 78 78 77 77 77 77 76 76 72 74 73 70 75 71 70 72 73 74 75 74 75 76 76 75 74 76 85 78 74 72 73 74 69 67
83 92 85 84 82 80 80 77 76 77 77 76 77 76 76 75 73 75 73 74 71 69 72 70 70 72 74 74 72 73 75 73 72 77 84 81 71 73 69 71 74 73 72
88 90 85 82 81 79 79 77 76 78 77 76 77 76 74 74 73 74 73 71 71 69 69 71 69 72 71 71 71 71 72 74 76 78 84 88 83 68 75 74 73 74 74
89 88 80 79 78 79 79 77 76 77 76 77 75 74 74 73 71 71 70 70 70 69 68 69 70 72 71 70 70 74 75 76 78 88 89 86 86 71 69 68 73 71 68
91 87 79 81 76 76 75 79 76 77 76 76 75 74 73 72 70 71 71 70 70 70 68 69 69 74 73 72 73 75 78 77 88 89 89 89 83 76 71 72 75 68 67
89 86 83 80 77 78 78 76 77 77 78 75 74 75 73 72 71 71 70 70 69 68 68 68 73 73 71 71 72 76 75 76 82 89 89 88 82 76 74 75 71 70 70
86 92 93 88 80 77 77 77 76 76 75 76 76 74 72 70 71 70 70 69 69 68 68 70 70 68 69 71 71 75 76 79 91 88 82 91 81 75 74 67 75 75 76
92 95 96 94 92 91 88 76 76 76 76 75 74 74 71 70 69 68 74 72 68 68 69 70 68 69 72 75 72 76 75 78 88 89 91 89 80 69 70 72 70 70 72
92 98 97 97 96 96 91 81 77 75 74 73 73 72 80 87 83 77 73 69 69 69 69 67 68 72 71 72 74 74 80 91 92 92 94 84 80 73 75 75 74 75 73
98 99 98 97 97 95 76 90 93 85 92 93 92 92 94 90 90 79 73 67 68 70 72 69 69 69 78 88 82 81 94 88 93 93 96 81 77 70 71 76 77 73 75
93 91 98 98 97 95 92 98 99 98 97 97 93 95 93 92 94 91 91 88 93 85 94 81 79 86 89 93 93 91 85 88 95 93 90 84 79 72 70 72 72 76 73
91 88 92 96 96 95 97 98 98 98 98 95 93 92 96 94 93 94 95 93 94 92 87 92 87 89 91 87 89 86 84 93 95 97 94 84 81 76 73 73 76 73 72
86 83 87 93 96 96 97 98 98 97 98 92 91 92 96 92 88 91 92 92 93 95 93 93 84 84 85 83 79 78 83 89 94 98 99 79 82 76 73 72 74 73 72
75 80 81 90 93 96 97 96 98 96 95 88 87 92 92 95 93 95 96 94 95 95 93 90 89 87 86 83 79 79 83 88 91 96 96 91 80 80 74 72 73 72 72
69 72 81 86 92 95 95 96 94 90 93 88 85 84 88 92 93 93 95 96 94 91 89 90 90 90 86 79 77 76 78 82 87 92 94 97 91 79 77 73 71 73 76
65 74 78 68 84 92 91 92 86 83 86 86 86 84 90 89 90 93 94 93 90 94 92 84 91 93 86 80 75 82 83 81 82 87 92 95 96 92 84 80 78 76 74
64 74 76 75 80 88 87 90 89 82 86 85 86 94 93 86 88 94 95 95 89 91 84 78 85 86 84 80 74 80 84 86 84 74 85 86 92 92 93 89 86 83 75
66 71 68 70 74 85 88 93 88 89 93 88 86 95 93 93 92 94 96 93 93 87 90 86 82 78 81 78 58 68 78 80 85 87 85 79 88 86 89 91 95 95 84
63 68 66 69 84 89 89 88 93 90 92 92 94 90 92 90 85 91 95 93 90 85 81 82 76 72 80 75 71 71 68 75 76 83 86 86 86 84 89 90 95 98 97
64 67 70 67 82 84 84 89 86 86 90 91 93 94 88 91 87 87 91 92 88 81 82 87 82 85 81 80 71 76 60 61 74 71 79 80 85 86 84 83 88 92 96
65 69 71 68 79 82 83 88 93 88 87 89 95 94 90 89 87 86 89 92 92 92 92 89 83 77 69 79 82 72 75 72 87 75 71 79 78 86 90 86 82 84 88
62 64 68 69 75 78 83 86 88 86 88 85 89 90 91 89 86 88 86 91 90 95 91 88 85 81 79 75 75 75 78 77 72 69 73 76 73 72 85 90 85 86 87
57 63 66 73 74 73 78 74 87 89 84 83 85 89 93 93 87 86 91 90 91 95 93 90 91 90 88 87 74 80 76 83 87 81 77 74 74 75 78 81 81 83 84
53 61 68 76 77 77 76 82 85 86 87 88 88 89 94 97 94 90 87 91 92 93 94 91 91 88 92 92 91 86 74 69 82 85 87 84 80 69 72 76 76 77 78

GFSSE_sfc_rhum_069.txt.gz
RH
65 64 78 75 74 74 74 76 77 76 76 76 75 74 74 73 74 75 75 74 77 75 72 77 74 73 72 72 74 74 76 77 74 72 73 74 73 73 74 70 68 52 76
59 64 80 78 74 75 75 78 78 76 77 77 75 73 74 73 75 74 71 72 74 74 74 75 74 72 73 73 75 75 75 74 75 70 69 69 72 73 72 74 71 63 73
56 60 64 82 76 76 75 77 75 75 77 77 77 78 74 73 73 70 71 73 70 71 73 71 74 74 73 76 75 76 76 75 74 73 69 50 55 72 65 67 73 71 67
51 54 55 85 79 76 75 76 75 74 78 78 77 77 74 74 74 73 71 72 72 70 72 72 72 72 74 74 75 74 75 76 78 71 51 45 49 72 74 70 65 66 69
56 56 60 81 81 76 75 77 76 75 76 76 75 75 76 75 74 74 72 69 72 71 72 72 72 72 72 72 74 74 76 77 75 61 54 64 52 65 74 71 67 72 74
55 52 70 79 78 77 76 78 76 76 77 76 76 73 72 72 71 72 70 69 70 72 72 72 71 72 72 70 74 74 76 76 66 55 57 65 57 73 72 64 71 74 71
53 54 55 81 78 77 76 76 76 77 76 75 75 73 71 73 72 70 70 72 68 71 73 71 69 68 69 73 75 74 75 74 60 60 58 56 62 76 69 66 66 69 69
53 53 58 77 78 77 75 76 75 75 75 76 74 74 73 71 70 68 68 68 68 71 70 71 72 72 73 76 77 76 76 70 57 60 59 60 77 76 67 70 69 70 75
53 56 61 58 67 74 76 76 75 76 74 74 75 73 73 71 72 73 69 67 67 70 70 70 74 74 75 77 77 77 79 75 57 58 53 54 81 68 72 75 74 70 71
57 58 60 58 64 65 67 75 75 74 76 74 71 72 72 71 71 72 73 70 69 69 69 69 71 72 76 76 76 76 77 69 52 59 57 57 77 70 68 69 72 71 74
62 60 58 61 65 74 71 71 72 74 72 73 69 80 70 57 58 56 70 69 67 66 66 69 69 73 74 77 76 77 64 50 49 48 46 80 78 72 73 75 72 76 73
64 64 59 65 64 65 60 72 67 61 60 63 66 71 65 65 64 61 64 69 66 65 67 68 76 73 62 57 57 68 47 54 51 50 50 81 76 70 72 76 74 73 74
59 65 64 69 72 64 71 62 61 60 61 65 72 71 71 64 63 61 63 58 62 64 50 56 53 52 61 56 56 52 52 51 48 48 61 77 72 70 74 70 76 73 77
71 74 66 66 75 70 66 61 65 60 63 58 64 74 71 56 61 65 59 64 64 54 57 55 52 62 64 63 57 56 53 47 46 47 60 76 77 72 69 73 74 72 72
73 72 69 70 79 77 78 73 66 64 59 60 62 68 64 60 65 62 65 59 62 58 56 57 60 59 61 57 56 56 53 53 52 48 48 77 77 73 71 70 72 72 71
66 64 66 71 75 76 75 80 72 65 62 60 58 62 71 66 71 63 64 62 60 58 56 57 59 60 56 52 58 57 54 50 56 56 49 55 76 75 74 70 71 70 72
60 64 69 69 71 76 78 75 66 60 56 57 61 70 67 70 74 84 70 64 61 64 68 65 62 59 51 48 58 54 51 53 49 56 52 50 53 77 76 74 71 71 72
58 68 70 58 66 71 72 72 61 60 60 59 60 60 69 70 75 76 69 80 62 63 58 57 55 53 52 50 53 51 52 52 53 56 52 52 52 46 67 79 82 78 74
60 66 71 66 67 70 75 68 66 67 63 61 60 61 70 67 73 73 66 62 67 60 55 52 56 55 52 49 46 49 51 50 53 43 53 55 53 52 49 67 82 84 79
57 62 65 64 71 74 70 73 63 63 63 60 60 61 69 67 74 73 65 67 63 56 55 53 64 57 53 50 38 44 49 49 51 50 48 46 49 54 50 59 56 50 76
56 63 67 71 77 72 68 65 65 63 62 62 61 68 70 71 76 77 79 66 64 57 60 63 57 62 52 55 49 44 46 48 48 46 44 45 48 48 50 51 55 51 49
57 63 69 72 78 75 65 68 64 65 61 61 64 70 67 71 77 72 74 67 69 56 68 67 64 54 54 54 50 51 44 41 39 40 44 45 48 45 45 50 54 59 59
56 63 68 74 76 76 72 70 72 69 69 66 67 63 64 70 69 71 73 67 70 62 57 67 63 65 50 57 61 49 45 45 47 43 48 43 51 44 45 48 50 53 57
53 57 65 70 75 74 78 71 76 62 60 55 60 58 63 70 70 68 71 72 72 59 69 66 62 61 59 52 54 52 60 57 47 44 42 42 44 40 44 42 40 44 52
50 54 60 70 75 74 79 75 68 69 56 58 60 73 72 76 74 67 71 73 73 64 71 71 71 77 56 51 48 51 59 51 61 52 45 43 41 40 40 42 39 40 46
48 53 58 71 78 75 77 76 78 74 69 61 64 63 61 62 88 73 68 75 76 70 73 68 72 72 69 64 56 57 48 54 49 50 48 53 50 44 42 41 43 41 42

GFSSE_sfc_rhum_075.txt.gz
RH
61 54 76 72 73 73 74 74 74 74 74 74 72 72 74 74 74 74 75 74 75 76 74 74 72 73 74 74 75 73 74 74 76 74 72 74 74 72 70 67 66 53 74
45 48 78 76 74 75 74 74 75 75 75 74 72 72 74 72 70 72 74 73 74 75 74 73 74 74 74 74 74 72 72 75 75 73 70 72 73 75 73 69 66 62 75
38 46 55 78 74 78 74 74 75 76 74 76 73 74 72 70 73 71 70 73 73 73 73 73 74 73 73 73 74 73 72 72 72 72 57 36 50 69 64 65 67 72 76
31 34 42 81 76 76 75 75 74 71 72 74 74 74 74 72 73 74 71 71 72 72 72 73 73 72 74 74 75 75 72 68 63 65 46 37 38 64 70 73 70 72 76
29 32 55 79 76 77 74 75 76 74 74 74 74 74 73 72 69 71 72 69 71 72 72 73 73 73 74 73 74 74 70 63 61 44 41 45 40 62 73 71 67 73 74
34 38 67 77 74 75 75 73 76 74 73 72 74 73 72 70 70 70 71 70 71 72 72 71 70 71 72 72 72 71 67 65 59 38 45 52 50 69 72 67 71 74 71
38 40 52 79 75 76 74 75 75 75 73 74 74 72 70 70 70 68 70 72 72 71 70 70 68 70 72 72 72 70 65 60 52 62 49 49 55 70 67 72 72 74 71
30 36 50 76 75 75 73 75 74 74 74 73 72 71 70 70 71 69 69 70 70 71 71 70 71 72 73 73 73 69 68 63 52 54 49 49 73 71 68 72 72 71 71
34 36 45 48 66 73 76 74 74 74 72 72 71 71 70 70 67 67 70 70 68 68 67 67 69 74 74 74 74 70 66 64 53 68 39 52 78 74 72 69 75 73 75
35 33 36 39 39 50 55 74 72 74 71 72 70 71 71 68 66 70 76 71 70 67 68 71 74 74 74 73 70 66 66 64 37 43 45 58 75 68 69 74 73 69 72
40 27 26 29 42 63 56 62 69 71 70 72 67 68 70 52 46 55 71 70 69 68 69 71 74 74 74 71 69 68 69 32 27 37 48 79 76 72 70 70 70 71 71
37 25 28 38 41 49 40 59 50 47 51 48 47 70 82 60 46 46 61 68 68 69 69 69 72 73 68 41 39 63 35 29 30 39 53 78 74 70 72 72 73 75 72
26 25 34 43 58 62 44 34 34 37 34 40 58 65 58 40 43 39 50 48 52 67 45 61 65 57 52 32 27 27 29 29 29 39 63 74 70 67 70 70 69 70 72
28 28 30 35 67 53 35 34 46 41 46 49 56 56 46 36 43 58 56 41 64 52 42 74 48 60 40 37 30 30 27 25 26 35 65 77 71 68 73 69 68 68 70
29 30 33 40 73 64 44 40 62 36 50 37 58 61 63 61 60 53 53 57 53 54 41 45 54 60 45 45 34 34 32 32 29 32 40 76 72 69 66 67 67 68 68
31 32 34 43 57 53 48 52 64 64 34 59 54 46 53 46 56 43 43 57 56 53 60 59 72 61 62 37 49 44 48 38 39 44 41 53 74 72 68 66 66 66 68
31 36 38 41 45 52 54 48 61 50 46 52 50 49 47 68 53 50 46 64 62 49 49 45 45 44 42 41 46 42 36 50 36 49 38 47 56 74 71 67 67 68 67
31 40 39 32 40 44 49 46 64 60 60 67 60 53 49 52 55 59 44 54 41 43 61 61 65 56 50 46 58 55 34 34 38 37 34 38 46 42 70 72 73 74 72
32 42 42 39 42 45 52 44 60 55 67 68 66 65 52 51 53 50 52 45 61 62 51 53 50 56 61 43 35 45 37 36 42 28 35 35 37 34 39 76 75 74 73
36 41 44 40 48 52 50 50 48 42 67 67 72 74 52 64 52 52 44 48 62 51 65 53 65 62 58 53 35 32 39 29 28 29 31 29 35 37 32 41 52 54 78
36 41 46 48 57 50 48 43 41 66 72 70 69 51 53 69 55 58 43 50 56 48 57 47 44 52 37 36 65 32 30 31 30 26 25 25 32 30 31 35 37 36 54
38 43 48 52 61 56 46 50 40 65 59 76 66 50 48 52 56 52 64 50 61 44 54 50 64 60 44 38 53 50 36 31 26 24 26 26 30 26 28 33 35 42 42
39 42 48 54 60 60 53 47 48 46 54 55 60 43 47 55 52 53 56 70 51 56 43 53 48 58 62 34 56 43 50 50 35 30 32 28 35 28 28 32 32 37 42
36 36 46 54 59 58 56 55 65 52 57 42 53 70 47 52 51 50 53 53 57 58 68 47 40 58 54 40 31 31 47 50 67 32 28 29 29 28 30 27 28 31 37
33 36 44 56 63 62 63 69 53 70 56 43 73 70 61 59 52 49 54 56 59 52 53 64 57 59 38 38 36 35 45 33 40 40 31 30 26 25 27 28 26 26 33
32 33 41 60 67 62 61 64 64 62 68 67 80 51 46 43 47 53 52 59 62 70 58 51 56 56 63 53 44 42 51 66 45 30 31 36 31 31 26 27 29 29 30

GFSSE_sfc_rhum_078.txt.gz
RH
58 61 78 76 74 76 75 76 77 76 75 73 73 74 73 74 76 78 78 80 80 79 78 77 77 74 74 73 75 75 74 78 77 76 75 75 74 73 72 72 70 64 74
53 59 79 78 77 76 76 76 74 75 74 73 74 76 71 70 73 76 77 76 79 78 75 75 75 74 74 73 73 73 74 76 77 75 72 72 70 68 71 71 73 70 70
50 58 64 80 78 74 76 76 76 75 75 73 75 74 72 74 70 73 74 75 76 75 75 75 74 74 74 74 73 71 72 74 74 70 60 59 57 65 67 72 74 75 71
46 48 54 82 81 75 77 76 75 73 73 74 75 74 74 75 74 72 73 73 75 75 75 73 74 74 74 73 72 70 72 69 65 66 50 43 56 72 72 74 73 73 70
37 43 64 81 79 75 77 74 74 74 74 75 75 73 72 74 73 71 71 72 74 74 74 73 74 74 72 72 71 70 71 71 69 57 53 63 69 72 69 71 71 72 73
39 46 73 78 77 75 75 75 74 73 75 75 74 73 72 72 71 71 72 71 73 73 72 72 72 72 71 71 71 70 70 68 64 53 56 66 76 69 70 73 69 74 72
43 50 61 80 79 77 75 75 75 74 75 75 74 72 72 71 69 72 72 73 72 71 70 70 72 72 71 70 71 72 68 69 61 59 60 66 72 74 73 74 71 75 73
40 45 57 76 78 75 74 75 74 75 73 73 74 71 71 72 72 72 71 70 71 71 71 71 73 74 72 71 71 69 68 63 51 60 68 71 77 72 72 72 70 72 71
38 49 58 59 71 74 75 74 74 74 73 72 72 71 73 72 71 71 71 70 68 68 68 70 73 74 73 72 70 68 68 71 62 61 58 72 81 72 70 74 74 75 72
42 42 48 53 55 63 65 73 73 72 72 71 71 70 74 71 70 68 74 73 68 67 69 71 73 74 73 71 69 66 66 66 49 58 64 72 76 71 74 69 71 71 76
48 46 35 46 63 74 69 67 73 71 72 71 70 68 76 67 59 61 73 72 69 69 70 72 73 72 71 70 69 68 66 75 49 59 70 82 78 69 68 70 71 70 68
42 36 41 50 55 55 43 69 69 61 59 63 62 93 91 63 61 58 68 72 68 69 70 73 73 70 68 56 64 69 64 45 53 61 73 81 77 71 72 73 76 74 70
34 42 49 57 60 56 59 61 60 63 67 61 67 73 74 59 64 59 69 64 69 70 70 71 72 70 68 66 52 46 42 44 49 58 76 81 74 69 70 69 70 71 70
43 44 51 57 66 68 52 50 58 51 52 65 66 68 75 69 68 93 65 72 73 90 93 90 64 62 55 54 43 41 37 41 50 62 77 78 74 72 73 68 68 69 68
35 43 55 62 72 74 65 64 59 61 51 53 64 66 67 59 72 72 82 70 70 79 87 77 76 63 58 52 49 52 43 46 44 55 73 81 78 72 67 67 67 67 67
31 45 54 57 69 58 72 70 74 76 65 62 67 65 75 66 77 65 74 69 67 78 69 78 79 64 65 56 58 56 53 49 55 54 62 78 79 78 71 68 65 65 67
30 43 51 58 56 63 62 65 72 64 56 64 63 81 86 78 80 87 75 70 68 71 69 75 73 71 62 56 61 61 55 54 52 56 55 59 72 80 76 73 70 66 66
35 49 46 40 50 59 62 64 62 61 66 65 71 71 79 77 78 83 79 72 72 70 75 81 76 76 65 66 68 66 59 55 52 53 57 57 63 56 77 78 77 74 71
42 48 48 54 51 56 67 65 65 74 78 76 88 86 75 67 64 73 74 69 71 76 72 70 70 67 67 65 56 57 58 57 56 39 49 53 54 61 65 81 82 80 74
43 48 50 49 64 66 63 73 65 68 93 80 87 86 78 70 64 76 77 72 73 76 74 68 75 72 78 66 42 44 57 56 59 57 49 43 53 53 58 72 80 75 82
42 49 55 62 72 66 64 62 74 66 71 74 85 75 83 84 69 75 73 68 84 77 66 73 68 70 69 65 72 62 60 47 46 52 48 47 50 48 51 57 69 68 74
46 52 61 67 73 68 64 71 65 68 72 78 84 75 77 74 71 68 82 70 77 78 73 68 72 72 72 62 69 74 68 62 50 40 50 43 48 46 47 50 56 58 66
57 54 61 69 73 70 70 70 74 91 94 94 95 82 65 73 66 72 77 76 64 79 74 71 71 78 76 60 62 72 75 72 68 56 51 51 51 55 53 50 52 59 61
65 50 61 66 73 68 73 70 75 71 82 76 69 77 68 67 70 70 70 73 80 87 87 76 62 72 75 76 64 51 62 68 76 69 60 53 56 42 49 58 50 55 59
48 44 57 66 75 71 74 79 75 76 89 89 77 85 82 78 68 66 72 70 76 90 78 80 72 74 80 71 63 67 66 68 66 75 67 62 61 55 54 56 49 53 55
46 39 54 68 77 75 73 73 79 78 95 97 92 89 90 71 69 72 66 76 79 86 84 72 71 68 79 81 76 74 74 72 72 72 66 64 62 57 54 53 53 54 55

GFSSE_sfc_rhum_084.txt.gz
RH
88 83 82 78 77 78 77 75 75 74 75 76 74 78 78 79 80 80 80 79 79 78 76 75 76 74 68 68 73 76 76 75 74 72 72 74 75 75 70 72 76 71 74
80 80 82 79 76 74 75 76 75 78 80 74 74 76 78 77 78 78 78 78 77 78 75 73 73 73 73 72 73 75 75 77 76 68 68 70 73 72 71 75 76 74 71
78 78 77 81 75 77 79 78 76 78 76 76 77 73 75 77 77 77 77 77 76 76 74 73 72 72 73 70 72 70 73 74 68 66 71 78 72 71 70 73 75 75 75
79 85 81 83 81 80 79 78 76 76 77 78 78 76 74 76 76 75 76 76 76 76 74 73 72 71 68 67 68 70 72 71 69 72 73 73 67 75 74 70 71 75 76
82 88 81 82 82 77 78 76 76 76 76 75 74 76 74 74 74 75 75 75 75 75 76 73 72 71 70 69 68 68 73 72 73 72 78 85 83 72 73 70 72 72 75
88 92 81 78 77 77 76 76 77 76 76 75 74 75 73 74 74 74 74 74 74 74 74 72 72 70 71 68 72 72 72 74 77 78 82 84 84 70 74 70 68 72 71
93 88 79 82 78 78 76 75 76 76 74 74 75 73 73 74 73 74 72 72 72 74 73 71 71 73 69 73 74 72 67 69 74 80 86 87 85 75 74 70 69 69 70
87 87 79 78 78 76 76 77 76 75 75 74 73 74 74 74 74 73 72 72 72 73 72 71 72 74 71 72 75 75 69 66 72 82 86 88 82 72 71 71 74 70 70
81 86 90 83 77 76 76 76 74 75 73 73 73 72 73 73 72 72 73 72 72 72 71 71 71 72 73 73 76 75 72 74 81 82 76 89 82 73 74 73 72 71 71
84 87 94 91 88 89 86 75 74 74 72 72 71 73 72 72 71 71 77 74 71 71 71 71 71 72 72 73 75 76 72 73 79 85 90 88 81 68 73 72 72 71 72
81 91 94 91 95 95 90 76 76 72 71 71 73 73 81 85 81 79 76 71 69 69 70 70 71 71 70 68 72 73 73 83 82 86 88 84 76 67 69 69 68 71 72
88 86 84 87 94 93 73 89 88 77 91 92 91 91 94 91 87 80 75 70 70 69 69 69 67 66 70 72 78 75 78 77 86 90 93 83 76 72 74 74 70 70 70
78 72 75 83 89 89 89 96 94 89 94 89 86 89 91 91 93 95 97 94 94 78 84 81 86 88 79 78 72 76 81 78 89 87 88 83 80 70 75 76 77 73 74
69 68 76 78 85 82 91 92 89 88 89 88 85 89 93 92 95 94 96 91 92 91 90 94 88 84 85 79 81 71 62 73 85 94 92 82 80 70 69 70 72 71 70
69 73 75 79 82 86 85 90 86 86 83 81 89 91 92 90 90 94 93 93 95 92 89 90 92 85 72 60 59 58 64 74 84 90 96 75 83 78 69 69 69 69 70
69 73 72 71 76 80 84 81 82 86 77 81 89 90 88 90 94 89 90 93 90 93 88 91 84 82 74 63 58 59 66 73 79 88 91 87 80 80 73 70 70 71 74
68 69 73 79 74 76 76 77 81 77 75 84 88 89 90 91 92 89 84 87 92 87 84 89 84 78 72 68 66 64 65 69 76 84 90 94 88 77 74 72 72 72 71
66 71 67 57 71 73 70 79 80 88 90 88 93 87 85 89 87 88 87 84 90 93 85 89 82 84 79 73 72 71 68 68 70 72 80 84 87 82 82 77 79 78 73
65 73 73 74 73 78 76 83 83 87 91 94 92 92 86 85 75 91 90 84 87 89 81 82 76 81 83 75 68 71 70 70 65 59 71 73 80 82 87 83 86 85 76
66 66 66 72 74 79 85 89 89 87 94 95 93 92 90 91 81 92 89 79 89 89 84 80 80 85 79 71 58 55 69 69 70 72 73 66 76 76 78 82 89 91 84
64 66 68 76 79 82 89 91 96 92 86 94 94 83 87 89 81 90 94 89 87 88 81 85 81 74 75 74 77 71 74 70 68 70 67 74 75 72 78 80 83 88 82
61 67 75 77 79 78 78 90 86 92 93 94 95 90 89 88 85 87 91 84 86 87 84 84 80 83 83 79 73 84 73 61 64 60 69 63 68 72 72 72 78 79 81
63 74 75 79 78 78 85 90 97 96 95 94 94 94 93 85 86 87 83 83 81 90 88 82 79 76 84 72 62 74 81 77 77 65 65 68 62 71 69 66 67 74 77
63 75 73 79 80 78 88 83 87 91 94 92 88 93 93 85 82 85 84 87 84 87 85 87 79 84 85 83 77 67 77 78 75 60 64 64 60 60 63 67 63 61 63
61 72 71 78 83 84 90 89 79 86 92 95 96 89 92 91 84 78 86 87 85 88 85 81 79 84 91 85 86 88 82 82 83 76 65 59 62 65 63 62 61 63 61
57 64 78 81 78 81 86 87 90 89 91 95 94 97 96 94 87 81 83 88 89 86 83 80 83 82 86 87 89 84 84 76 88 84 80 68 68 56 63 61 64 64 66

GFSSE_sfc_rhum_087.txt.gz
RH
91 87 82 77 76 78 76 74 75 76 75 76 79 76 80 80 80 79 79 78 77 77 76 74 68 68 68 70 71 72 71 72 73 73 74 74 70 72 75 75 74 69 76
86 84 81 79 78 74 75 75 75 79 74 74 80 77 77 78 79 78 78 77 77 77 74 72 72 68 74 75 75 74 74 73 72 69 69 71 69 75 74 75 70 69 76
84 84 79 81 74 77 78 76 76 74 74 73 76 77 76 77 77 77 76 76 76 76 72 73 71 71 72 70 70 73 72 70 69 69 74 80 71 71 75 74 75 71 73
85 90 86 83 81 79 80 75 76 76 76 77 73 76 76 77 77 76 77 77 76 75 73 73 70 69 69 69 68 68 67 69 70 75 80 79 71 71 70 74 76 76 74
91 91 84 81 81 79 77 78 76 76 75 76 75 74 75 75 76 75 76 76 75 74 73 72 70 68 67 65 65 67 68 73 73 77 84 88 86 71 71 73 73 76 76
94 92 84 78 77 77 76 76 76 74 75 75 74 72 74 74 74 75 74 74 75 73 72 73 72 70 67 67 68 69 72 74 78 83 90 83 83 72 68 70 68 71 72
97 92 85 80 78 77 76 76 75 75 75 75 75 73 74 74 74 74 72 73 74 72 72 71 69 69 69 72 69 72 74 75 83 90 90 90 85 76 68 68 69 69 72
95 92 86 79 77 76 75 76 75 76 75 75 74 74 74 74 75 72 72 73 73 70 70 72 69 70 72 71 70 68 70 70 79 88 89 91 81 72 72 70 69 67 68
90 93 92 86 78 76 77 74 75 74 73 73 75 75 75 75 72 72 72 74 72 69 71 72 71 70 72 73 71 69 68 74 88 88 79 91 81 72 72 71 70 71 71
95 95 96 93 91 92 86 74 73 73 73 72 72 72 74 71 71 74 76 75 72 69 69 71 70 72 72 74 74 73 73 76 88 91 91 90 79 75 72 71 71 71 72
92 97 96 96 96 94 91 78 74 71 70 71 74 76 86 90 91 82 74 70 69 69 68 70 70 71 71 72 72 73 75 88 89 89 93 83 76 68 68 68 70 72 73
97 96 97 97 97 95 77 92 92 84 93 93 94 93 96 92 89 82 74 69 68 69 68 68 67 66 70 76 80 74 82 85 90 92 95 81 74 71 70 68 69 70 70
92 89 93 96 96 95 92 97 95 92 94 92 90 93 92 93 96 97 97 95 96 82 90 87 85 87 79 79 74 85 87 86 96 94 89 85 74 73 76 76 73 73 73
85 83 86 92 96 93 97 97 95 93 91 85 87 90 95 97 95 95 96 93 93 94 90 92 91 91 91 82 83 78 77 84 93 95 94 80 80 68 68 69 71 70 70
81 80 85 87 92 90 95 95 94 94 89 87 91 91 94 93 92 94 94 95 95 93 89 92 93 88 70 74 82 73 72 78 86 94 99 76 79 74 68 68 69 71 71
75 83 83 84 86 87 93 91 90 92 85 85 92 92 90 88 92 91 91 93 93 94 93 92 90 86 76 71 75 70 73 79 84 91 94 90 78 82 75 71 70 71 72
76 80 79 80 79 85 86 87 88 86 81 89 90 89 86 90 89 87 87 91 93 90 87 92 87 81 76 71 69 69 73 77 82 87 90 95 92 78 75 73 73 73 72
75 77 78 64 76 81 82 84 82 87 92 91 90 90 88 90 88 91 89 86 91 94 92 91 86 85 81 76 78 75 73 74 75 81 87 90 90 87 85 78 78 77 74
73 76 81 76 78 75 81 85 86 88 92 96 94 95 85 87 84 92 89 84 91 92 86 86 82 83 85 75 71 75 75 76 72 64 76 77 82 85 88 83 86 86 78
73 75 80 75 81 81 89 93 94 94 95 96 94 94 90 93 80 94 94 83 92 90 88 86 85 86 81 77 63 62 68 75 74 74 76 69 77 76 80 81 85 88 86
72 78 81 82 88 86 93 94 95 94 92 96 94 84 86 92 91 90 90 92 91 91 84 85 89 77 78 79 79 72 75 75 72 74 74 78 78 75 79 80 85 86 87
72 74 80 80 85 88 87 93 89 95 92 95 95 90 88 87 88 87 90 85 89 87 81 86 86 84 86 83 76 89 76 62 67 66 72 70 75 76 76 75 80 79 82
71 74 74 83 81 85 88 96 98 96 95 94 95 95 91 87 87 90 86 88 87 92 87 85 84 80 79 77 74 77 82 77 84 65 69 75 71 73 73 74 70 72 78
66 69 71 80 80 82 92 90 90 90 94 94 92 94 92 88 86 85 85 89 87 90 90 87 90 89 87 81 82 76 83 81 74 60 62 69 65 59 68 72 69 66 66
63 70 75 80 83 86 90 91 88 92 93 94 92 88 92 94 87 87 83 87 87 87 88 84 85 86 94 89 87 92 83 85 90 74 66 63 62 66 69 68 66 65 63
62 71 76 80 82 91 91 91 86 90 93 95 96 95 96 96 96 92 86 87 88 85 88 83 88 83 87 92 87 90 86 80 91 88 87 73 69 61 65 64 64 66 67

GFSSE_sfc_rhum_093.txt.gz
RH
65 66 80 76 78 77 77 78 76 76 76 77 78 78 78 77 77 78 76 75 72 75 74 73 71 71 68 69 71 73 74 74 72 68 74 75 75 72 75 72 69 52 74
60 61 82 78 74 73 73 74 74 75 78 77 78 78 77 77 76 74 74 75 72 73 69 70 73 73 74 74 74 74 72 75 74 70 71 72 72 71 73 75 72 64 74
58 57 62 79 73 74 78 77 72 74 78 77 77 77 76 77 76 74 72 74 74 73 71 72 72 74 74 74 71 69 70 73 72 70 64 52 58 73 71 74 75 75 75
54 54 51 83 78 77 77 76 75 72 76 76 76 77 76 76 76 74 71 73 74 73 72 70 69 68 67 65 67 69 73 76 76 71 52 44 50 74 75 73 75 74 76
60 52 64 80 78 76 77 76 76 75 72 75 76 75 75 76 76 73 71 72 72 73 72 69 70 70 70 70 71 72 74 76 75 59 54 54 49 64 74 72 72 74 75
54 50 72 77 76 76 78 75 75 75 74 74 74 75 76 75 74 73 72 73 73 71 71 70 69 68 68 66 70 72 76 78 65 58 59 59 55 68 70 69 69 72 75
50 59 58 79 75 76 76 75 75 76 74 74 74 74 75 74 74 73 72 73 72 71 69 70 71 71 72 71 74 73 76 77 61 60 61 54 56 71 67 68 70 72 74
57 53 57 74 74 75 74 75 74 75 75 74 76 75 74 72 72 71 71 72 71 69 70 70 72 70 70 71 73 73 74 72 59 58 61 54 75 69 67 68 69 72 76
54 57 60 58 69 75 73 75 75 74 75 74 75 75 76 72 73 72 73 70 70 68 67 68 69 70 73 69 67 69 76 78 60 60 53 55 80 71 68 67 70 70 71
59 56 64 65 66 62 60 73 72 74 73 74 74 76 77 72 69 72 76 73 69 68 67 67 68 70 72 71 69 69 70 70 54 58 50 62 79 74 70 70 71 72 72
63 62 60 57 65 72 67 64 70 71 74 76 78 81 73 61 63 61 72 71 69 66 66 69 68 69 71 73 72 72 68 49 47 52 46 77 75 66 66 70 71 71 70
71 68 64 63 64 65 65 69 72 67 65 67 69 73 66 68 68 57 66 70 69 68 69 70 71 70 60 68 55 64 47 51 47 50 48 76 72 70 69 69 70 70 70
65 62 65 68 72 77 79 64 61 60 62 64 71 69 72 67 65 61 64 59 59 66 49 52 53 50 58 53 58 50 56 51 45 46 63 79 73 73 76 75 72 71 72
65 64 63 64 73 73 64 58 60 59 59 56 62 70 69 60 66 67 61 62 60 54 61 62 54 62 62 61 53 54 54 47 43 46 56 78 81 70 67 67 70 72 72
59 62 61 66 75 75 72 65 61 61 55 56 61 67 61 58 68 65 67 61 62 56 58 61 60 56 56 52 56 56 53 51 46 43 45 80 76 77 74 69 69 69 70
56 58 60 63 71 71 70 75 68 62 61 56 58 60 68 58 67 62 63 60 59 57 57 62 59 56 52 49 57 55 52 46 50 52 43 47 77 77 78 75 72 71 70
55 57 60 62 64 70 72 70 65 60 55 59 58 69 64 65 69 70 61 60 60 64 66 63 56 53 46 43 52 49 47 49 45 51 48 46 47 74 77 76 73 74 74
56 63 61 51 60 64 68 68 61 59 59 59 60 61 67 70 70 69 58 59 65 62 57 55 52 50 48 46 49 47 46 48 51 51 49 50 49 42 59 71 76 78 76
59 62 63 62 64 66 72 65 64 68 62 62 62 61 71 68 67 65 59 60 66 56 55 53 53 57 52 48 45 46 47 46 48 38 49 51 49 48 46 67 75 76 72
58 62 63 61 69 72 68 73 64 62 68 64 61 63 69 64 65 67 62 65 64 58 56 55 64 57 56 53 39 40 45 44 47 46 43 40 45 50 46 56 52 49 76
58 64 67 69 75 70 69 68 66 63 70 68 62 70 71 70 68 72 60 65 63 61 62 66 58 62 49 54 48 42 43 43 44 44 42 40 43 41 45 46 49 44 44
58 64 69 71 76 73 67 68 63 68 63 64 66 70 68 67 71 66 70 65 67 58 68 68 68 51 50 55 51 52 45 39 37 34 39 40 43 39 38 42 46 52 51
59 65 69 72 75 73 72 71 73 72 72 69 70 64 63 67 66 72 68 65 68 64 56 66 64 66 50 57 64 52 49 46 46 38 42 39 47 40 40 41 42 46 50
56 60 66 71 74 72 76 71 82 75 83 62 61 64 64 67 65 67 71 68 72 63 69 65 61 63 63 58 57 53 63 64 51 42 38 38 39 35 40 37 35 37 45
54 57 62 71 75 71 76 75 65 82 60 61 62 74 76 75 69 64 69 72 72 59 69 69 70 71 60 58 55 57 64 54 63 54 43 39 35 35 36 37 35 36 40
53 56 61 72 76 76 76 76 77 76 81 68 69 65 64 62 64 71 66 72 72 68 68 64 71 69 67 65 57 57 54 53 56 54 52 53 46 39 38 37 40 38 39

GFSSE_sfc_rhum_096.txt.gz
RH
48 49 75 75 71 77 78 76 75 76 78 78 79 78 77 77 76 76 76 74 76 75 74 71 72 69 70 72 75 74 72 70 74 74 74 70 73 77 74 69 69 48 74
41 44 78 74 74 71 72 73 75 77 76 78 78 77 76 75 74 75 75 71 73 73 70 72 74 73 74 75 73 74 74 71 73 71 72 71 70 74 75 75 72 62 74
37 41 55 76 71 74 77 72 74 77 77 77 76 76 76 74 72 73 74 70 72 73 72 73 74 74 71 67 67 74 74 72 68 60 61 50 55 71 74 74 75 75 75
40 38 37 82 75 77 75 73 73 76 75 75 76 76 76 76 74 74 73 73 73 72 70 68 68 65 67 69 70 74 75 74 69 61 36 36 47 73 73 74 74 74 76
43 34 54 77 76 74 74 76 74 73 74 74 75 75 75 74 73 73 72 72 71 72 71 73 71 71 71 70 71 74 76 70 58 47 39 46 43 69 74 71 71 74 75
35 35 68 77 76 76 75 76 75 73 73 75 75 75 74 73 72 71 72 73 71 70 69 70 70 70 67 72 71 74 75 64 55 44 39 48 50 67 68 70 75 75 75
31 36 46 76 75 76 74 74 74 73 73 74 74 74 74 73 73 72 72 72 72 70 70 71 72 72 74 73 72 74 73 64 43 43 40 44 53 71 67 68 74 74 74
31 34 44 72 76 74 74 74 74 74 74 74 74 74 72 74 72 73 73 71 69 70 70 71 71 72 71 71 72 72 73 63 42 43 45 60 71 70 66 68 72 74 75
32 36 40 42 65 73 75 74 74 74 74 75 74 72 72 72 71 72 71 70 68 67 68 69 70 73 69 67 68 74 75 69 40 42 49 43 77 69 66 68 70 71 72
35 40 41 43 43 46 48 71 73 74 74 75 75 70 74 70 71 70 76 72 67 66 67 67 69 72 71 69 69 68 66 65 34 37 38 52 79 69 69 70 70 70 70
38 37 33 36 48 59 55 60 69 73 75 77 73 73 66 50 55 55 71 69 65 66 67 68 69 72 74 72 70 68 70 32 31 31 34 78 72 65 67 69 69 69 69
40 36 34 39 39 42 37 54 53 49 44 47 49 55 52 54 56 45 60 67 66 67 68 68 70 67 63 42 45 60 28 34 32 32 42 75 74 71 70 69 70 71 71
41 37 37 45 51 45 48 39 41 42 44 50 57 50 50 43 41 38 44 43 44 57 38 46 45 38 48 40 39 38 38 32 31 32 60 76 71 70 68 70 68 69 71
42 40 38 44 62 50 44 38 39 40 40 40 47 53 51 42 44 44 40 43 43 37 47 44 41 48 47 49 41 41 36 32 30 30 54 76 76 69 66 65 67 68 69
39 38 41 49 60 59 52 43 42 44 36 38 43 48 42 43 51 45 50 41 42 38 40 43 42 43 43 41 40 41 38 37 33 29 31 72 74 74 73 69 67 67 67
38 38 43 49 58 55 56 58 50 40 40 38 40 49 53 43 50 45 47 42 40 37 39 41 44 39 36 34 41 39 38 34 40 35 28 43 71 73 73 72 69 69 68
36 40 47 48 50 56 59 55 45 40 36 38 42 54 53 50 59 54 45 42 42 48 50 45 41 39 32 31 40 38 34 38 36 41 33 30 47 71 70 72 72 72 71
37 45 46 37 45 50 54 53 44 43 40 39 40 44 53 58 58 53 42 42 46 44 40 38 36 34 34 32 37 34 34 34 40 40 35 35 36 32 65 66 68 72 73
42 47 48 46 47 52 59 49 47 55 44 43 43 42 57 54 55 47 42 47 50 41 39 35 37 39 37 34 30 31 32 32 35 29 38 39 39 35 35 72 71 73 70
42 47 49 48 56 61 59 57 45 45 46 44 44 44 56 51 56 49 46 51 46 41 40 39 50 40 39 38 26 29 30 31 32 32 32 30 35 38 33 43 40 46 74
41 48 52 55 64 68 63 49 47 46 48 45 44 57 57 54 56 58 43 51 48 46 52 52 42 48 34 36 33 30 30 31 31 30 28 28 33 29 33 34 35 35 40
44 47 54 57 64 64 52 56 46 47 44 44 46 56 53 54 58 55 55 49 53 45 56 56 57 37 35 41 36 34 32 29 26 24 27 27 32 26 28 33 36 41 39
44 50 54 60 62 62 57 56 69 62 57 64 53 51 51 54 54 57 57 50 55 51 42 53 50 56 36 41 51 39 34 33 29 26 31 27 35 28 29 32 32 35 39
40 46 52 58 63 61 64 57 69 84 75 69 47 46 49 55 52 52 57 57 59 45 54 52 46 49 55 42 39 39 51 54 35 30 26 27 29 28 32 27 26 30 36
37 42 47 59 64 60 66 62 56 59 74 44 45 68 60 61 56 50 58 59 61 46 58 57 58 59 43 42 38 41 50 41 48 35 30 27 26 26 26 27 27 27 32
36 40 45 60 68 65 65 66 67 64 58 81 68 56 48 46 52 56 55 60 61 55 57 52 59 58 56 52 43 44 39 39 39 36 34 36 31 30 27 27 29 29 29

GFSSE_sfc_rhum_102.txt.gz
RH
55 65 79 73 70 71 73 74 74 74 78 79 79 77 76 76 78 78 78 77 77 77 76 75 75 75 75 71 74 75 75 75 72 74 74 74 74 75 74 70 71 64 75
46 57 78 74 71 73 73 75 77 77 77 78 78 77 76 74 77 79 78 75 77 75 75 75 73 74 74 71 69 72 72 72 74 74 72 72 74 76 77 74 72 71 76
46 57 64 76 71 72 72 75 75 76 76 78 77 76 76 74 76 73 75 75 74 74 74 67 68 70 72 74 71 71 73 69 68 67 69 66 70 74 74 74 75 76 75
39 42 48 80 75 70 74 75 75 74 76 77 76 77 76 76 76 74 73 74 75 73 68 70 69 70 72 71 70 70 70 70 80 69 55 57 60 73 74 74 76 76 76
44 50 68 77 76 75 73 74 74 74 76 75 76 75 75 74 74 73 71 72 74 74 73 72 70 70 70 71 71 71 72 73 69 58 66 79 78 74 74 74 73 74 74
45 54 72 75 75 76 74 73 74 76 76 76 75 74 74 74 72 71 70 72 71 72 72 71 72 70 69 68 69 70 70 74 60 52 59 70 72 74 73 73 74 75 76
42 51 60 77 75 75 75 74 74 75 75 75 75 74 74 74 72 71 71 72 71 72 73 73 71 70 69 68 68 72 73 64 52 57 60 66 72 76 75 74 73 74 74
40 47 57 75 74 74 74 74 75 75 75 75 77 74 75 76 76 73 73 73 71 70 70 68 68 69 67 67 69 69 70 64 48 58 63 68 76 72 70 72 72 74 74
35 44 52 57 70 74 75 74 74 74 74 74 74 75 77 74 72 73 75 72 69 69 71 69 68 68 66 66 65 65 66 68 57 62 52 66 77 70 69 70 71 71 70
46 58 50 54 55 62 61 74 75 73 72 73 73 74 76 74 73 73 76 74 68 68 70 72 70 68 68 67 63 61 64 64 44 52 62 72 76 67 67 68 68 69 70
44 47 47 51 57 67 67 68 73 73 73 73 70 75 79 62 63 62 73 72 68 69 70 72 72 72 67 66 68 67 67 61 39 49 62 78 74 66 67 68 69 70 72
41 45 40 47 43 48 44 69 70 65 62 62 62 74 86 65 64 51 64 69 68 68 69 73 74 74 84 73 64 68 55 43 43 55 72 79 72 67 68 68 69 69 69
36 42 48 57 56 48 61 64 69 61 65 89 74 78 72 56 58 54 64 66 73 74 78 65 71 67 90 83 64 43 43 44 43 50 74 78 75 66 66 67 68 69 68
38 47 38 45 58 52 55 59 56 56 62 95 82 78 82 65 66 73 71 93 93 68 94 80 65 64 53 50 39 42 37 38 40 51 74 76 71 65 64 64 65 65 66
33 47 44 51 61 60 59 61 56 56 60 59 59 60 59 64 73 65 83 85 93 78 79 68 70 66 61 50 45 45 41 42 38 42 64 75 75 70 66 64 64 64 64
36 55 51 48 58 65 68 67 59 57 48 52 59 75 76 64 82 78 93 74 78 78 64 68 88 77 65 49 54 46 46 45 50 45 53 72 77 73 66 67 66 66 67
33 47 58 52 61 59 62 60 61 53 52 52 54 78 80 71 83 87 82 71 65 65 60 65 65 58 54 45 54 50 47 50 48 49 46 54 67 76 73 69 69 70 70
38 51 55 41 55 56 66 65 64 64 55 60 58 60 64 64 81 87 72 71 64 72 72 66 67 61 55 57 55 55 54 51 53 51 50 49 55 47 75 76 76 76 73
44 47 53 53 56 64 68 63 58 66 70 63 67 67 68 63 76 79 68 65 68 75 74 65 62 63 56 53 47 52 52 54 56 40 51 52 52 54 58 77 78 79 76
43 46 57 61 74 69 76 75 68 86 67 64 72 65 65 64 62 74 70 68 69 76 80 68 68 60 68 52 40 40 50 50 53 55 52 43 52 52 53 66 76 71 81
42 53 62 69 79 72 70 74 75 70 73 74 72 70 69 64 61 74 76 68 96 80 68 64 68 73 66 60 70 60 54 47 48 50 48 45 50 47 47 54 66 64 70
45 57 75 70 74 72 70 85 87 77 76 77 67 69 64 68 68 68 78 79 81 75 70 68 72 76 62 60 70 73 68 62 48 38 48 43 45 43 46 52 56 56 68
47 53 69 78 77 74 75 84 87 94 85 90 83 69 67 66 63 71 79 89 85 94 84 75 71 78 76 62 64 71 78 73 62 53 49 52 49 53 51 49 51 56 57
43 46 62 74 79 73 84 86 83 89 87 88 91 98 94 67 66 63 70 82 81 96 94 80 65 76 81 77 62 51 67 64 74 68 58 53 53 43 48 56 47 52 58
39 42 53 67 77 74 79 79 77 79 77 88 93 95 94 81 69 64 68 67 75 88 86 82 85 82 77 82 77 67 68 71 69 62 68 61 58 54 48 55 46 54 50
39 44 53 68 77 75 72 76 82 72 79 91 97 91 90 88 74 68 68 71 76 92 91 76 73 73 81 84 79 80 93 97 95 90 84 66 61 54 50 50 47 50 57

GFSSE_sfc_rhum_105.txt.gz
RH
77 79 80 73 72 72 72 73 73 76 80 80 78 79 78 77 78 80 79 77 77 78 75 75 74 71 74 75 75 74 72 78 78 76 72 72 72 72 75 73 73 66 75
74 75 80 76 74 74 75 76 77 77 78 78 79 78 76 77 76 78 77 75 75 75 74 74 75 73 70 72 73 71 72 74 76 76 72 72 72 74 75 74 75 72 72
71 73 71 79 73 73 76 77 77 76 78 77 77 78 75 72 74 75 75 74 74 72 66 69 71 73 71 72 75 69 69 70 71 72 73 76 73 74 74 75 75 75 75
69 74 74 82 78 75 77 77 76 76 77 76 77 76 74 76 76 75 72 71 72 71 69 69 71 70 70 70 74 69 81 75 73 70 70 68 66 74 74 75 75 76 76
65 76 78 80 78 76 75 75 76 76 76 77 76 75 74 74 74 74 74 74 73 73 71 71 70 69 69 71 72 72 71 73 70 69 77 88 86 75 75 75 74 73 74
73 81 80 77 76 74 75 75 75 76 76 76 75 74 73 73 70 70 71 73 73 74 72 70 69 68 68 70 70 72 72 70 65 68 74 80 84 73 73 74 75 75 75
75 77 77 80 77 75 74 74 75 76 75 77 76 74 73 72 71 71 71 72 73 73 72 69 68 66 67 70 70 71 68 66 63 69 74 80 83 78 73 73 75 76 77
69 76 74 76 76 75 74 76 76 76 76 76 75 75 75 74 75 74 72 72 69 69 68 67 67 66 66 66 67 71 72 64 60 71 77 84 81 74 70 68 73 72 72
63 75 77 77 74 75 75 76 76 75 75 75 74 76 76 73 72 72 72 71 70 67 66 65 65 65 64 64 64 66 71 66 66 72 68 84 79 71 70 71 71 70 71
61 70 74 80 82 85 80 75 74 74 73 74 75 76 76 72 70 72 78 74 69 70 68 66 63 63 62 62 62 63 65 67 67 72 80 85 77 68 68 69 70 71 72
56 64 69 71 82 84 85 75 75 73 73 74 77 75 82 86 77 75 76 72 67 68 69 68 67 67 67 67 68 67 62 70 60 71 84 80 76 67 68 69 71 73 73
63 65 69 67 74 76 62 85 87 82 88 89 86 85 91 86 84 73 75 70 67 68 68 71 71 69 71 83 81 71 76 58 67 78 87 80 74 68 69 70 71 71 70
56 56 58 60 66 68 73 84 85 84 88 94 89 90 91 93 78 87 94 94 91 64 80 72 83 76 75 76 78 73 62 56 67 77 85 85 76 70 69 69 70 70 69
52 57 57 59 63 71 78 80 80 80 75 85 88 87 88 75 83 95 91 89 94 95 88 88 94 78 73 74 75 64 51 55 68 81 87 80 77 68 66 66 67 67 68
53 55 63 68 71 62 71 75 71 75 76 73 92 79 91 85 96 92 86 89 95 96 98 91 79 70 73 56 49 42 48 51 63 77 95 74 79 74 68 67 67 67 68
56 61 61 66 64 66 63 64 64 68 74 78 90 87 76 91 89 92 94 96 98 98 85 78 68 69 70 54 53 47 48 50 50 67 83 85 80 80 74 70 68 69 70
56 61 64 66 61 61 68 66 70 65 61 75 80 68 76 78 84 88 94 96 88 94 72 70 67 74 73 58 51 53 50 51 47 53 64 79 83 80 78 74 77 78 74
59 64 59 43 64 64 66 71 66 65 75 69 77 80 80 81 76 85 86 82 79 74 80 72 72 71 71 77 61 58 60 55 53 49 56 62 71 62 78 79 79 80 79
59 65 61 64 66 70 74 75 82 72 78 75 74 74 68 77 82 79 83 75 83 85 86 76 70 61 64 64 61 64 65 59 54 47 53 57 63 64 72 77 80 80 77
59 56 60 70 66 79 86 87 90 82 74 79 78 76 73 75 76 72 86 90 78 88 88 76 72 68 64 62 50 47 58 61 62 63 56 52 61 60 65 66 80 78 81
55 56 72 77 82 77 77 87 85 82 75 78 74 70 68 70 70 76 93 81 79 94 85 73 73 77 73 70 69 68 59 56 59 70 59 58 56 57 60 68 74 75 72
63 58 73 80 78 80 85 90 92 88 88 84 80 76 72 67 69 71 92 93 88 94 91 77 74 79 77 68 72 83 67 61 57 54 61 53 56 56 54 56 72 69 68
66 72 81 86 84 84 88 88 92 89 92 94 92 92 83 72 69 74 89 93 88 90 75 85 89 83 92 76 69 74 82 71 70 58 51 56 50 58 55 57 55 57 69
58 66 74 76 88 84 87 86 87 92 90 94 94 94 92 81 71 72 76 80 81 83 73 87 78 86 86 89 80 61 69 76 78 62 68 58 52 54 55 79 57 64 79
56 62 72 82 87 85 87 88 92 88 88 95 95 88 83 91 78 67 78 83 88 92 92 93 84 85 91 90 96 90 82 92 93 96 83 72 86 76 91 92 86 94 93
51 64 71 81 85 88 87 84 85 86 94 95 94 94 94 94 92 90 70 82 93 85 73 84 89 83 85 90 94 91 88 90 96 96 97 91 87 93 93 93 88 97 96

GFSSE_sfc_rhum_111.txt.gz
RH
78 72 80 74 76 75 73 76 79 78 78 78 76 73 72 75 76 78 77 76 75 72 73 74 74 71 72 75 74 75 75 74 74 74 74 75 77 75 73 72 75 73 75
78 79 77 74 74 74 76 78 79 78 76 78 76 73 72 74 76 76 76 75 75 72 72 72 73 73 73 74 73 75 76 76 74 73 72 73 74 74 72 74 71 69 73
77 85 78 79 76 77 77 77 77 77 74 78 76 75 76 74 74 74 75 74 74 72 72 73 73 70 70 70 70 72 74 76 75 75 76 84 80 74 74 71 73 71 70
85 91 84 83 76 77 77 77 77 75 73 75 73 74 75 76 74 74 68 66 68 71 71 72 71 71 68 73 72 72 73 73 75 78 82 79 71 74 74 74 75 76 76
92 91 87 76 77 76 78 77 76 77 73 77 76 76 75 71 69 69 71 70 70 72 70 70 70 72 70 70 71 73 74 75 77 80 88 92 90 76 74 74 74 73 74
93 92 81 74 76 75 76 78 76 77 75 76 74 75 74 74 72 73 73 71 70 70 70 70 71 71 70 68 71 73 75 78 82 86 92 87 86 73 73 75 74 74 74
96 92 79 78 76 76 77 77 76 77 76 75 75 72 71 70 71 72 72 71 72 71 68 68 69 70 70 70 70 70 71 77 85 88 90 90 89 78 74 73 73 71 75
94 92 84 77 76 76 75 77 76 76 77 74 74 74 73 72 72 71 73 72 71 68 66 67 68 68 71 74 72 70 69 70 78 86 88 91 81 72 67 70 73 74 76
89 91 91 84 77 76 76 77 76 77 76 74 74 74 75 74 72 71 68 66 64 63 64 64 65 66 67 69 72 68 69 74 91 91 81 90 79 70 70 71 71 71 72
94 93 95 93 91 90 87 76 76 77 76 75 73 74 73 72 70 71 77 71 66 64 63 62 63 64 66 67 70 69 69 72 85 88 91 91 78 69 69 70 69 69 70
90 96 96 96 95 94 90 78 75 74 74 74 75 75 83 92 88 83 73 68 68 67 66 65 64 65 66 72 72 66 70 80 86 91 93 82 75 67 67 69 71 73 74
95 96 96 96 96 94 76 92 92 86 94 94 93 93 96 93 92 85 78 77 75 70 68 76 76 73 73 80 81 77 83 73 82 90 93 80 71 67 68 70 71 72 71
90 90 93 96 96 94 93 97 97 95 96 97 94 96 93 93 91 91 91 90 89 72 76 73 77 79 90 82 80 81 78 76 86 88 83 80 71 67 68 69 70 72 72
86 84 87 92 95 93 98 98 95 92 93 95 95 91 96 94 93 87 85 84 89 95 95 95 94 82 80 81 85 80 69 76 89 94 94 78 77 72 68 68 69 70 71
80 80 83 83 87 92 95 95 97 94 89 92 94 92 94 92 96 87 88 94 93 96 96 93 92 89 78 75 68 77 70 70 82 92 99 82 82 74 69 67 68 69 70
71 76 78 76 80 88 95 95 97 91 77 88 96 94 85 92 94 92 92 94 95 97 93 93 91 89 79 76 62 61 63 66 73 81 90 92 76 76 73 70 70 70 71
69 75 77 75 75 84 90 93 94 90 84 94 95 92 91 91 92 90 94 94 95 91 94 96 92 85 82 74 63 61 62 63 68 71 78 88 85 76 74 73 76 79 74
72 76 74 60 72 80 78 84 83 83 94 88 81 91 85 89 88 92 93 93 94 90 97 95 93 85 86 80 69 67 65 61 57 59 64 71 74 71 74 77 81 82 76
70 73 73 73 74 75 80 86 82 82 88 85 80 95 85 81 89 92 95 94 93 96 97 93 90 82 76 70 66 68 76 73 61 48 56 57 62 69 69 68 77 82 77
68 70 72 80 85 86 94 94 95 92 89 86 92 95 84 86 86 97 94 90 93 96 95 89 84 86 77 76 64 60 69 72 74 82 62 54 62 60 63 65 72 81 80
69 74 78 87 88 85 92 89 92 91 92 91 87 88 87 88 88 93 95 85 94 96 89 89 89 85 77 81 78 74 71 72 69 89 78 72 71 64 66 67 73 88 86
67 72 81 81 85 82 88 93 93 93 93 90 93 90 83 85 85 89 91 93 93 86 80 90 94 88 87 89 90 80 79 83 87 87 90 79 70 69 66 64 76 76 89
67 76 76 83 85 86 91 94 97 95 96 94 94 93 91 85 84 86 88 91 91 88 70 91 93 92 93 91 89 84 90 76 85 87 86 93 88 94 94 92 88 81 89
65 73 80 88 92 91 91 89 88 92 92 95 96 95 91 78 86 84 84 84 87 83 86 92 90 93 91 92 88 83 92 90 83 78 84 90 87 84 92 93 88 89 89
66 72 77 88 94 92 91 89 92 91 89 94 94 90 89 86 85 86 80 88 88 94 91 91 92 92 95 92 93 94 87 93 94 92 82 80 85 89 93 96 95 95 91
66 73 81 90 93 94 89 90 90 88 91 96 95 95 95 95 93 89 85 88 91 91 87 86 92 89 93 95 91 90 89 88 89 93 91 91 89 93 95 96 95 95 94

GFSSE_sfc_rhum_114.txt.gz
RH
80 77 73 66 66 74 77 78 79 78 77 76 76 74 75 75 76 75 76 75 72 76 73 74 71 74 74 74 75 76 73 73 74 76 76 76 74 73 74 76 77 67 75
70 72 72 69 70 71 79 78 77 78 77 73 75 73 76 76 76 76 75 72 73 73 73 73 73 75 73 75 74 75 74 75 74 73 73 73 73 75 72 72 74 69 75
77 78 72 75 75 77 78 77 75 76 77 75 73 74 74 74 75 76 74 73 72 73 74 72 71 71 71 71 74 76 76 77 75 75 76 76 71 70 70 70 68 69 69
86 92 84 81 78 78 78 77 75 74 77 75 74 75 75 76 76 69 68 71 72 74 73 73 70 71 70 72 75 74 76 77 79 81 78 74 67 74 75 76 77 76 75
95 92 87 76 77 77 76 76 74 72 75 73 76 75 75 76 71 69 69 70 72 72 71 74 74 73 73 74 75 74 76 78 80 80 82 85 78 72 74 75 73 74 76
95 92 78 74 74 76 76 76 76 73 75 76 75 75 73 71 73 73 72 72 70 70 74 72 75 74 74 73 74 76 78 80 84 82 83 80 79 74 75 75 74 75 75
96 92 80 76 76 76 75 75 76 75 76 75 75 73 72 72 72 74 73 72 70 69 70 71 71 69 71 72 71 72 77 80 84 85 83 83 78 78 73 73 70 73 76
95 90 85 75 73 76 74 76 77 75 74 75 72 72 72 74 73 75 73 73 67 67 68 69 70 71 71 71 72 70 73 77 78 83 84 81 78 72 70 74 74 76 78
92 92 90 85 77 76 75 76 76 75 74 74 74 74 74 73 73 69 68 66 64 64 65 66 67 69 71 71 70 70 70 78 82 81 75 78 79 71 72 72 73 73 73
95 93 94 91 88 89 86 75 75 75 74 73 74 73 73 72 72 75 78 70 64 63 63 64 66 68 69 71 71 70 70 77 76 80 80 77 78 69 70 71 71 71 72
93 97 96 94 94 94 91 85 78 75 74 73 75 75 86 92 88 82 72 69 70 68 64 64 65 67 73 72 70 67 75 73 74 78 79 82 74 67 68 70 72 73 74
99 98 97 96 95 93 87 94 93 85 95 94 94 92 95 90 91 85 80 76 72 70 68 72 71 75 77 72 72 74 70 72 73 77 78 78 70 66 67 69 71 72 71
96 96 97 96 96 95 96 95 95 95 96 97 92 94 92 93 86 90 90 88 86 75 80 75 77 75 79 79 78 73 77 69 71 74 74 78 73 68 67 69 70 71 72
95 95 94 95 96 94 95 98 94 92 92 94 94 90 94 90 87 88 80 83 86 90 88 88 87 80 76 76 75 78 66 72 73 75 81 78 76 72 68 67 68 69 70
94 90 92 94 96 94 96 95 96 94 88 91 92 90 94 94 93 85 88 91 90 92 92 88 83 80 76 71 66 75 65 69 73 75 83 84 80 77 70 66 67 69 70
86 86 88 90 91 93 95 95 96 89 85 90 93 92 88 93 93 88 88 90 93 94 87 86 86 82 76 72 66 62 68 65 71 76 76 79 80 75 73 70 70 71 71
81 81 85 85 83 90 93 94 94 89 79 92 94 89 91 87 89 91 92 93 93 88 90 88 85 83 76 70 68 63 62 62 64 67 71 72 71 74 73 72 74 79 75
77 83 82 66 78 86 91 91 91 89 94 88 86 90 89 89 88 91 92 93 91 90 90 92 89 79 78 76 69 66 65 61 60 62 63 65 69 60 68 72 81 82 76
77 82 83 78 81 85 87 88 88 86 94 87 84 94 84 83 85 89 93 91 92 94 95 85 90 80 76 71 65 68 71 69 62 47 57 58 57 60 62 66 74 77 75
79 80 80 83 86 87 93 95 95 91 95 88 90 95 85 85 87 93 90 88 92 94 88 84 83 83 76 75 57 60 69 70 73 75 67 58 59 59 57 68 69 67 78
76 79 84 89 93 89 91 93 94 91 90 90 91 88 91 89 89 92 91 81 91 89 86 87 86 82 81 81 76 72 70 72 75 83 73 71 69 63 63 66 69 77 73
75 80 87 88 93 87 88 92 93 93 92 88 93 90 88 89 89 88 89 88 89 84 85 88 88 84 83 86 86 76 78 74 82 80 86 72 69 68 64 65 72 74 81
73 80 85 90 89 89 90 93 96 95 96 94 94 93 90 86 87 88 90 91 90 86 82 90 90 86 89 83 86 81 90 76 79 81 78 85 81 84 77 81 77 76 84
70 76 83 89 90 89 93 90 90 91 92 95 95 95 92 80 87 86 85 85 86 82 87 90 88 88 86 83 81 76 86 86 76 72 77 75 76 70 79 84 78 80 80
66 76 80 90 92 92 92 90 92 92 89 94 94 91 91 87 83 84 85 88 87 93 90 88 88 92 91 87 90 93 84 89 88 87 74 77 70 70 82 85 83 88 78
70 77 81 89 92 93 91 90 90 90 92 95 95 93 94 93 90 87 84 85 88 88 85 87 89 87 90 91 85 88 88 88 87 90 88 89 83 88 86 86 86 84 90

GFSSE_sfc_rhum_117.txt.gz
RH
58 68 72 69 68 70 74 79 78 76 76 78 77 76 76 75 77 77 75 74 74 74 72 73 75 74 74 76 74 72 73 76 77 75 74 73 75 75 76 74 68 49 74
63 68 71 70 70 73 79 77 78 76 74 73 76 76 76 76 76 75 74 74 73 74 74 75 74 75 75 74 76 74 74 77 77 74 73 72 74 72 74 73 69 64 75
63 70 69 71 70 73 77 75 79 76 72 72 74 75 75 75 76 76 72 74 75 74 72 71 72 72 74 74 75 74 76 76 73 74 68 50 51 68 67 67 68 69 70
48 71 60 77 70 69 78 76 75 75 75 75 76 76 75 75 70 71 73 74 74 74 74 72 71 71 74 74 75 77 77 78 78 70 52 49 52 74 75 76 76 76 75
56 51 57 75 77 76 77 75 74 74 72 76 76 75 75 71 68 68 71 72 73 74 76 73 68 71 74 74 74 75 76 78 74 60 55 56 51 68 74 72 73 74 72
55 50 65 77 76 76 76 76 73 75 75 75 75 71 70 75 73 73 73 70 71 73 74 72 70 72 72 73 73 75 78 79 69 56 55 63 58 74 74 74 74 74 76
53 52 49 76 74 75 75 76 75 75 76 75 75 73 73 73 72 71 71 70 70 72 73 70 70 71 71 71 71 75 78 77 58 59 57 58 62 77 72 71 74 75 72
50 56 57 73 75 74 74 76 74 75 76 75 73 72 75 74 74 72 72 67 69 70 69 70 72 71 73 72 70 73 76 70 57 61 58 53 74 74 74 75 75 77 77
54 54 59 57 66 73 74 75 76 73 74 74 74 73 74 71 70 69 66 66 66 67 67 68 70 72 72 71 71 69 75 76 56 58 52 48 78 72 70 71 72 72 72
63 57 64 58 60 62 64 74 74 74 73 75 75 74 73 74 72 71 73 69 64 64 65 66 68 70 72 72 72 70 70 69 42 52 48 51 74 69 69 70 70 72 74
65 58 58 58 67 77 72 71 74 74 72 73 74 81 76 60 61 58 70 68 65 63 63 65 66 70 70 70 69 70 73 45 36 40 42 76 69 67 68 70 72 72 72
64 63 59 63 63 69 65 74 76 65 70 70 70 74 68 66 66 64 70 73 71 68 70 70 70 71 62 46 48 65 45 49 41 41 42 76 69 66 66 69 70 71 71
61 62 64 69 70 73 73 64 65 61 64 68 73 71 71 68 59 54 56 54 55 61 49 49 49 45 56 50 50 46 49 51 40 38 54 76 72 67 66 68 68 70 72
64 64 65 66 73 78 63 67 62 59 58 58 65 73 68 56 60 59 46 53 60 57 62 58 49 56 54 54 48 50 44 43 37 38 49 75 74 72 68 66 66 68 70
59 62 64 70 76 76 77 67 68 62 53 56 63 67 66 61 64 55 62 59 61 59 59 58 54 52 55 47 44 52 46 46 43 37 42 78 78 77 72 67 67 69 70
56 61 63 68 73 72 73 78 70 60 56 59 60 63 70 62 66 57 59 60 60 60 56 57 57 55 52 41 46 47 49 44 48 47 41 46 81 78 72 70 71 72 72
55 59 64 65 66 72 73 72 68 60 54 58 62 70 70 66 67 72 61 62 58 59 68 62 59 57 46 38 47 44 43 47 42 44 40 37 41 67 72 71 74 76 76
54 65 64 51 58 64 68 69 63 60 59 57 62 62 71 68 71 71 62 59 58 65 62 60 55 49 46 42 45 42 44 44 45 44 40 40 41 35 53 66 70 76 75
56 62 65 62 61 64 73 66 65 68 60 60 59 64 70 67 68 67 62 60 70 64 62 54 58 54 47 44 40 44 46 45 45 34 43 45 42 41 39 60 73 75 72
56 60 63 61 66 71 69 74 66 62 63 60 60 65 67 62 68 72 63 64 65 60 57 55 65 58 52 48 35 40 44 44 45 45 43 41 45 47 44 52 48 47 78
56 60 64 66 72 69 68 67 66 84 64 63 61 72 70 69 72 74 62 59 64 62 69 67 58 64 54 56 50 48 48 47 47 49 45 42 43 42 44 45 49 46 47
57 61 66 69 74 73 64 68 62 66 61 58 66 72 69 68 73 69 71 62 69 57 70 70 68 54 55 60 54 50 48 44 44 42 48 47 46 42 40 45 50 58 59
57 62 66 72 76 73 72 70 73 71 88 67 68 66 70 69 70 71 70 69 69 63 58 71 66 66 54 59 69 53 50 44 48 46 51 48 56 48 47 52 53 57 62
54 58 64 72 76 73 75 69 81 66 62 78 88 80 65 68 70 66 69 68 72 57 71 67 63 64 66 57 55 51 63 61 47 44 46 46 48 44 50 48 46 50 58
51 56 60 71 76 72 76 72 62 81 57 67 70 80 74 72 68 65 70 71 70 59 72 73 70 73 59 54 55 57 62 53 61 50 43 44 42 41 43 48 47 48 53
50 54 57 70 78 76 76 74 76 78 80 67 84 67 71 63 60 70 69 70 72 68 70 67 73 73 70 65 56 60 53 50 50 50 49 54 52 46 43 42 44 46 48

GFSSE_sfc_rhum_123.txt.gz
RH
58 48 74 68 67 68 71 78 74 76 78 76 77 77 76 75 76 77 76 75 75 76 75 75 75 75 72 73 75 74 75 73 74 74 75 74 73 72 70 66 70 51 76
38 46 75 72 70 72 71 72 77 75 76 76 76 76 75 74 74 76 76 76 76 76 75 74 75 74 74 73 73 74 75 75 73 71 71 71 73 75 76 74 70 62 75
51 42 60 79 71 73 76 73 74 76 75 76 75 74 74 74 75 76 75 74 72 72 73 74 74 73 73 74 74 75 74 74 73 72 68 39 50 66 70 73 75 76 74
42 35 41 78 74 71 76 74 73 73 74 75 74 74 74 74 74 74 72 72 72 71 71 73 74 74 75 76 76 74 74 70 66 67 47 39 44 74 73 70 70 69 71
36 33 53 74 76 76 77 77 74 74 73 74 72 67 68 72 74 72 70 69 70 71 71 72 73 73 72 73 74 73 70 68 65 64 52 54 45 64 72 73 75 73 71
35 42 62 74 75 73 75 72 75 73 74 74 73 74 72 72 72 73 71 71 71 70 74 74 73 71 69 71 72 71 71 71 70 44 43 52 56 72 71 70 72 74 74
32 33 44 74 75 74 71 73 74 74 74 74 74 73 70 72 69 70 71 71 70 70 72 70 69 68 70 71 73 71 71 68 51 61 45 53 59 73 74 73 70 70 71
27 32 41 71 74 73 72 73 74 74 73 73 72 72 71 72 71 69 71 70 68 70 72 74 72 70 68 70 72 71 73 70 35 39 40 47 75 74 73 75 75 73 73
25 32 35 42 64 72 73 73 72 71 72 72 72 73 73 72 68 67 70 69 71 70 71 71 72 72 70 67 66 63 62 61 34 34 34 43 74 68 67 68 68 67 66
32 36 48 35 38 45 49 72 71 72 72 72 71 70 70 67 65 66 71 69 68 68 68 70 71 71 72 71 68 66 59 59 29 32 34 51 71 66 66 67 68 68 68
33 40 37 54 51 66 51 59 69 70 72 72 68 69 68 40 45 54 68 66 64 64 65 66 68 70 72 72 71 71 70 29 23 27 34 75 67 64 64 65 65 66 67
30 40 65 44 37 45 41 56 54 51 52 50 42 47 37 46 47 46 64 72 66 68 68 67 67 66 67 46 46 66 38 26 26 29 39 71 66 62 62 63 64 66 69
26 37 34 37 56 49 46 48 42 36 36 42 48 42 44 40 42 36 47 48 46 60 44 53 51 43 35 31 27 24 29 26 26 29 56 68 65 62 61 62 64 67 68
29 32 33 36 47 54 39 35 44 45 33 35 40 46 47 36 41 41 37 42 42 32 40 38 32 37 36 34 27 26 24 23 24 29 51 69 68 69 68 64 65 66 68
30 32 32 46 68 65 48 49 41 36 34 35 39 40 35 34 47 41 44 37 47 30 32 33 34 35 36 33 29 28 26 27 27 28 37 68 69 71 71 68 68 68 70
31 32 34 44 67 45 56 54 42 38 42 40 58 41 46 40 46 41 42 36 34 32 30 32 39 37 30 30 32 29 28 29 32 30 33 46 71 72 71 70 70 70 71
31 34 38 43 46 49 52 48 39 32 29 33 53 49 46 44 52 48 39 58 34 42 44 40 40 35 28 26 35 32 29 31 32 36 29 33 46 77 73 71 72 73 73
33 40 41 33 43 50 56 49 38 42 36 56 60 41 48 51 50 56 40 41 39 42 33 31 33 30 28 27 29 29 29 30 36 36 30 30 30 31 66 76 76 76 72
35 41 43 39 56 64 53 51 58 43 56 50 55 51 49 48 50 48 44 41 51 33 32 45 30 32 31 27 27 28 28 29 34 27 34 36 32 30 30 73 77 76 71
36 41 42 39 53 59 47 67 68 44 48 41 64 64 50 45 49 54 40 45 55 32 51 60 58 35 34 28 22 25 26 26 28 29 30 28 29 33 31 38 47 65 79
35 42 45 46 56 53 46 44 55 46 62 62 51 50 51 47 51 56 42 48 73 51 70 45 44 50 40 35 32 29 30 29 28 29 26 25 28 27 26 29 36 39 45
36 43 48 50 59 60 45 65 72 64 67 61 51 49 47 48 52 48 57 45 66 42 55 50 66 63 32 34 55 31 34 30 25 24 26 25 26 24 24 28 33 39 45
36 42 49 54 61 61 73 48 58 69 54 41 44 44 46 48 49 53 53 56 52 54 49 50 52 56 92 37 50 45 42 52 37 25 30 28 31 29 27 29 32 37 43
35 37 46 53 60 57 61 66 60 54 50 44 46 48 45 48 48 47 50 53 57 48 61 47 40 57 58 65 34 29 46 48 43 96 90 90 35 31 32 32 29 32 38
31 36 40 54 62 60 63 75 54 60 65 53 67 69 57 55 50 44 50 54 57 47 54 59 56 56 49 44 36 65 44 36 39 37 44 90 91 79 29 29 27 30 33
29 37 38 54 66 66 64 61 68 74 72 75 51 58 47 42 46 51 48 55 57 55 56 53 57 58 61 59 48 46 35 41 46 45 33 36 73 35 60 28 31 32 33